Hourly Data Report for October 11, 2015

All times are specified in Local Standard Time (LST). Add 1 hour to adjust for Daylight Saving Time where and when it is observed.

BAKER LAKE A
NUNAVUT

64°17'56.000" N
96°04'40.000" W
18.60 m
2300503
71926
YBK

Download Data

Hourly Data (October 2015)
Hourly Data Report for October 11, 2015
Temp Definition
°C
Dew Point Temp Definition
°C
Rel Hum Definition
%
Wind Dir Definition
10's deg

Wind Spd Definition
km/h
Visibility Definition
km
Stn Press Definition
kPa
Hmdx Definition


Wind Chill Definition


Weather Definition


TIME
00:00 Legend Double Dagger -2.5 -7.1 71 12 42 24.1 99.93   -11 Cloudy
01:00 Legend Double Dagger -2.2 -7.0 70 12 39 24.1 99.88   -10 LegendNANA
02:00 Legend Double Dagger -2.0 -7.1 68 11 43 24.1 99.88   -10 LegendNANA
03:00 Legend Double Dagger -2.0 -6.6 71 12 45 24.1 99.88   -10 Cloudy
04:00 Legend Double Dagger -2.1 -6.5 72 12 47 24.1 99.88   -11 Snow
05:00 Legend Double Dagger -2.1 -6.5 72 12 44 16.1 99.91   -11 Snow
06:00 Legend Double Dagger -1.9 -6.9 69 12 43 24.1 99.95   -10 Snow
07:00 Legend Double Dagger -1.8 -5.1 78 11 39 12.9 99.94   -10 Snow
08:00 Legend Double Dagger -1.9 -5.2 78 11 39 32.2 99.99   -10 Snow
09:00 Legend Double Dagger -2.2 -4.9 82 11 39 9.7 100.05   -10 Snow,Blowing Snow
10:00 Legend Double Dagger -2.5 -5.2 82 12 40 12.9 100.08   -11 Snow,Blowing Snow
11:00 Legend Double Dagger -2.3 -4.6 84 12 35 8.1 100.12   -10 Snow,Blowing Snow
12:00 Legend Double Dagger -2.3 -4.8 83 13 31 16.1 100.17   -10 Snow,Blowing Snow
13:00 Legend Double Dagger -2.5 -5.8 78 13 33 16.1 100.19   -10 Snow,Blowing Snow
14:00 Legend Double Dagger -2.6 -5.3 82 13 28 9.7 100.24   -10 Snow,Blowing Snow
15:00 Legend Double Dagger -2.7 -5.9 79 13 27 9.7 100.26   -10 Snow,Blowing Snow
16:00 Legend Double Dagger -2.7 -5.7 80 12 23 12.9 100.29   -9 Snow,Blowing Snow
17:00 Legend Double Dagger -3.2 -6.0 81 14 21 12.9 100.35   -9 Snow,Blowing Snow
18:00 Legend Double Dagger -3.4 -5.7 84 13 20 8.1 100.38   -10 Snow
19:00 Legend Double Dagger -3.7 -5.7 86 14 21 16.1 100.39   -10 Snow
20:00 Legend Double Dagger -3.8 -6.0 85 14 19 16.1 100.41   -10 Snow
21:00 Legend Double Dagger -3.9 -6.1 85 14 18 16.1 100.43   -10 Snow
22:00 Legend Double Dagger -4.0 -6.3 84 14 18 24.1 100.43   -10 Snow
23:00 Legend Double Dagger -4.1 -5.8 88 15 22 24.1 100.44   -11 Snow

Notes on Data Quality.

Legend

  • E = Estimated
  • M = Missing
  • NA = Not Available
  • ‡ = Partner data that is not subject to review by the National Climate Archives
Date modified: